Other Public Products
Issued by NWS Grand Forks, ND

Home | Current Version | Previous Version | Graphics & Text | Print | Product List | Glossary On
Versions: 1 2 3 4 5 6 7 8 9 10 11 12 13 14 15 16 17 18 19 20 21 22 23 24 25 26 27 28 29 30 31 32 33 34 35 36 37 38 39 40 41 42 43 44 45 46 47 48 49 50
000
FPUS83 KFGF 300110
OPUFGF
PRAIRIE TO PINES WEATHER ROUNDUP
NATIONAL WEATHER SERVICE EASTERN NORTH DAKOTA/GRAND FORKS ND
700 PM CST THU JAN 29 2015

 **SATELLITE DATA USED TO AUGMENT SKY COVER AT AUTOMATED STATIONS**
 *****  WEATHER ACROSS EASTERN NORTH DAKOTA  *****

CITY           SKY/WX    TMP DP  RH WIND       PRES   REMARKS
GRAND FORKS    PTCLDY     6   0  76 N6        30.57S WCI  -4
GRAND FORKS AF CLEAR      6   0  79 NE5       30.58R WCI  -3
GRAND CITY NWS   N/A      5 N/A N/A N5          N/A  WCI  -4
BUXTON         NOT AVBL
DEVILS LAKE    CLOUDY    10   5  79 E5        30.49F WCI   2
FARGO          CLEAR     12   4  70 N7        30.56R WCI   1
WAHPETON ARPT  CLEAR     14   9  79 N8        30.55R WCI   3
$$

 *****  WEATHER ACROSS CENTRAL AND WESTERN NORTH DAKOTA  *****

CITY           SKY/WX    TMP DP  RH WIND       PRES   REMARKS
JAMESTOWN      CLOUDY    18  12  77 NW8       30.50R WCI   8
BISMARCK       CLEAR     21  18  88 E7        30.47S WCI  12
MINOT          CLEAR     13   9  84 E6        30.45S WCI   4
MINOT AFB      CLEAR     12  11  97 SE9       30.45S WCI   0
GARRISON         N/A     19  15  84 E7        30.43S WCI  10
WILLISTON      CLEAR     26  20  77 SE7       30.36F WCI  18
DICKINSON      CLEAR     27  18  69 E9        30.35S WCI  18
HETTINGER      CLEAR     25  17  72 CALM      30.38S
$$

 *****  OTHER OBSERVATIONS NORTHEAST NORTH DAKOTA  *****

CITY           SKY/WX    TMP DP  RH WIND       PRES   REMARKS
WALHALLA         N/A      5   1  85 N5        30.57S WCI  -4
LANGDON        NOT AVBL
CAVALIER       FAIR       5   0  78 NE5       30.58S WCI  -4
GRAFTON        NOT AVBL
CANDO          CLOUDY    10   5  79 E5        30.51S WCI   2
FORT TOTTEN    NOT AVBL
ROLLA          MOCLDY     7   5  92 S3        30.47S
RUGBY          FAIR       5   3  92 W3        30.50S
 ***** THE ABOVE OBSERVATIONS ARE NON NWS ARE NOT QUALITY
        CONTROLLED AND MAY MIS-REPORT RAIN FOR SNOW...
$$

 *****  OTHER OBSERVATIONS SOUTHEAST NORTH DAKOTA *****

CITY           SKY/WX    TMP DP  RH WIND       PRES   REMARKS
COOPERSTOWN    NOT AVBL
VALLEY CITY    CLOUDY    16  14  93 NE7       30.52R WCI   6
OAKES            N/A     19  16  86 N10       30.52S WCI   8
GWINNER        CLOUDY    19  14  79 N10       30.54R WCI   8
BUFFALO        NOT AVBL
WYNDMERE         N/A     16   9  73 N8          N/A  WCI   5
 ***** THE ABOVE OBSERVATIONS ARE NON NWS ARE NOT QUALITY
       CONTROLLED AND MAY MIS-REPORT RAIN FOR SNOW...
$$

  *****  WEATHER ACROSS NORTHERN MINNESOTA  *****

CITY           SKY/WX    TMP DP  RH WIND       PRES   REMARKS
FLAG ISLAND    CLEAR      1  -4  78 NW12      30.50R WCI -15
WARROAD        CLEAR      1  -4  78 NW5       30.51S WCI  -8
ROSEAU         PTCLDY     1  -4  78 NW8       30.52S WCI -12
HALLOCK        PTCLDY     3  -2  78 N8        30.57S WCI -10
THF RVR FALLS  PTCLDY     3   0  85 NW8       30.53S WCI -10
HALSTAD          N/A      7   0  70 NE8         N/A  WCI  -5
FOSSTON        PTCLDY     1  -2  85 NW5       30.52S WCI  -8
BAUDETTE       CLEAR      3  -3  76 NW6       30.48R WCI  -8
WASKISH        CLEAR      3   0  85 NW6       30.49R WCI  -8
CROOKSTON      CLEAR      7   1  78 N10       30.58S WCI  -8
$$
  *****  WEATHER ACROSS CENTRAL AND WEST MINNESOTA  *****

CITY           SKY/WX    TMP DP  RH WIND       PRES   REMARKS
BEMIDJI        PTCLDY     5   0  78 NW8       30.47R WCI  -8
PARK RAPIDS    MOCLDY     8   2  76 NW12      30.47R WCI  -7
WADENA         FLURRIES   9   3  78 NW8       30.48R WCI  -4
DETROIT LAKES  CLEAR      9   3  78 NW12      30.51S WCI  -6
MOORHEAD       FAIR      10   7  85 N8        30.56S WCI  -1
FERGUS FALLS   CLEAR     10   3  72 N7        30.57R WCI   0
ELBOW LAKE     FAIR      12   7  81 N12G17    30.51R WCI  -2
MORRIS MN      FLURRIES  16  10  79 N15G22    30.51S WCI   1
STAPLES        FAIR      10   5  79 NW10      30.47R WCI  -3
WHEATON        CLOUDY    16  10  79 N8        30.56R WCI   5
$$
  *****  WEATHER ELSEWHERE ACROSS MINNESOTA  *****

CITY           SKY/WX    TMP DP  RH WIND       PRES   REMARKS
DULUTH         MOCLDY    11   1  64 NW10      30.38R WCI  -3
INTRNTL FALLS  CLOUDY     5  -3  69 NW8       30.46R WCI  -8
ELY            CLOUDY     9   1  72 NW6G16    30.37R WCI  -1
CLOQUET        CLEAR     10   1  67 NW10      30.41R WCI  -3
BRAINERD       CLEAR     13   4  67 NW8       30.46R WCI   2
HIBBING        CLOUDY     9  -1  64 N15G23    30.41R WCI  -8
ALEXANDRIA     CLEAR     12   5  73 NW8       30.48R WCI   0
SAINT CLOUD    CLEAR     18   6  59 NW12      30.47R WCI   5
MINNEAPOLIS    PTCLDY    23  10  57 NW17      30.44R WCI   9
$$

  *****  WEATHER ACROSS SOUTH DAKOTA  *****

CITY           SKY/WX    TMP DP  RH WIND       PRES   REMARKS
SIOUX FALLS    CLOUDY    25  18  74 N12       30.50R WCI  14
BROOKINGS      NOT AVBL
WATERTOWN      CLOUDY    20  14  77 N13       30.48R WCI   7
HURON          CLOUDY    26  19  74 NE9       30.52R WCI  17
SISSETON         N/A     18  11  74 N14       30.53R WCI   4
ABERDEEN       CLOUDY    23  16  74 N9        30.53R WCI  13
MITCHELL       CLEAR     25  19  78 NE5       30.53R WCI  19
PIERRE         CLEAR     26  19  74 E6        30.46R WCI  19
MOBRIDGE       CLEAR     27  19  72 NE7       30.44S WCI  19
RAPID CITY     CLEAR     33  14  45 E3        30.39S
$$

  *****  SOME WEATHER IN NEARBY STATES *****

CITY           SKY/WX    TMP DP  RH WIND       PRES   REMARKS
GLASGOW MT     CLEAR     32  28  85 E13       30.25F WCI  22
GREAT FALLS MT MOCLDY    41  20  43 S10       30.20S
CHEYENNE WY    MOCLDY    36  21  54 S10       30.37S
SCOTTSBLUFF NE PTCLDY    32  24  72 E7        30.40F
OMAHA NE       MOCLDY    34  24  67 N14       30.49R WCI  25
DES MOINES IA  CLOUDY    32  21  64 N14G21    30.45R WCI  22
DAVENPORT IA   CLOUDY    32  22  66 NW21G28   30.30R WCI  20
CHICAGO IL     CLOUDY    34  23  64 NW15      30.18R WCI  24
EAU CLAIRE WI  CLOUDY    23  12  62 NW13G23   30.36R WCI  11
LA CROSSE WI   CLOUDY    29  16  58 NW17G30   30.33R WCI  17
$$

  *****  SOME NATIONAL WEATHER *****

CITY           SKY/WX    TMP DP  RH WIND       PRES   REMARKS
LA GUARDIA NY  CLOUDY    35  27  72 S8        30.09F
RALEIGH NC     MOCLDY    39  24  55 SW7       30.10S
ATLANTA GA     CLOUDY    54  31  41 SW3       30.13S
NEW ORLEANS LA PTCLDY    67  55  65 SW12      30.20R
OKLAHOMA CITY  MOCLDY    47  27  45 N9        30.47R
ALBUQUERQUE NM CLOUDY    46  22  38 E22G31    30.38R
SALT LAKE CITY CLOUDY    41  35  79 W6        30.25F
LOS ANGELES CA CLOUDY    64  53  67 W7        29.99S
BOISE ID       CLOUDY    44  34  67 NW5       30.33F
SEATTLE WA     PTCLDY    49  39  68 N6        30.30F
$$

*** WEATHER ACROSS MANITOBA...SASKATCHEWAN AND ONTARIO ***
                ***ONTARIO***

CITY           SKY/WX    TMP DP  RH WIND       PRES   REMARKS
GERALDTON      PTCLDY    -2  -8  78 NW10      30.26R WCI -19
THUNDER BAY    PTCLDY     9   0  66 NW8       30.38R WCI  -4
SIOUX LOOKOUT  FLURRIES   0  -4  85 NW8       30.39R WCI -15
TORONTO        LGT SNOW  28  27  93 W15       29.75S WCI  17
BIG TROUT LK   CLOUDY    -9 -17  70 NW15G23   30.30R WCI -31
PICKLE LAKE    CRYSTALS  -8 -13  77 W8        30.31R WCI -23
DRYDEN         MOCLDY     1  -4  78 NW8       30.41R WCI -12
KENORA         PTCLDY     0  -6  78 NW7       30.46R WCI -13
$$
                *** MANITOBA***

CITY           SKY/WX    TMP DP  RH WIND       PRES   REMARKS
BRANDON        FLURRIES   5   0  78 NW3       30.51S
DAUPHIN        CLOUDY     0  -6  78 E7        30.51F WCI -13
ISLAND LAKE    CLEAR    -11 -18  70 W9        30.43S WCI -29
PILOT MOUND      N/A      0  -4  85 E2          N/A
THE PAS        MOCLDY    -6 -11  77 SE5       30.44F WCI -17
THOMPSON       CLEAR    -11 -18  70 W9        30.38F WCI -29
WINNIPEG       CLEAR     -2  -9  71 W7        30.58S WCI -16
LYNN LAKE      CLEAR    -15 -18  84 W6        30.31F WCI -29
CHURCHILL      FLURRIES -11 -20  64 NW23G30   30.23S WCI -38
GILLAM         CLEAR     -6 -17  59 W16G23    30.29R WCI -28
$$
                ***SASKATCHEWAN***

CITY           SKY/WX    TMP DP  RH WIND       PRES   REMARKS
ESTEVAN        MOCLDY    16  12  86 E12       30.37F WCI   3
KINDERSLEY     MOCLDY    18  14  86 NE6       30.20F WCI   9
LLOYDMINSTER   MOCLDY    16  10  79 SE7       30.18F WCI   6
PRINCE ALBERT  FLURRIES   5   1  85 E6        30.33F WCI  -6
REGINA         MOCLDY    14  12  92 SE14      30.32F WCI  -1
YORKTON        MOCLDY     5   0  78 S9        30.39F WCI  -9


USA.gov is the U.S. government's official web portal to all federal, state and local government web resources and services.